Location: Bauen
(46.9356°N, 8.5784°E)
Time: 15:21:18
(UTC+00:00)

Cosmos 1603 - Pass Details

Date: 18 February 2020
Orbit: 832 x 858 km, 71.0° (Epoch: 08 April)

Event Time Altitude Azimuth Distance (km) Brightness Sun altitude
Rises 04:36:46 0° 200° (SSW) 3,412 6.6 -19.3°
Reaches altitude 10° 04:39:13 10° 199° (SSW) 2,477 5.9 -18.9°
Maximum altitude 04:44:54 77° 114° (ESE) 876 3.8 -17.9°
Drops below altitude 10° 04:50:35 10° 29° (NNE) 2,478 6.5 -17.0°
Sets 04:53:02 0° 29° (NNE) 3,413 7.3 -16.5°
